Regional Weather Roundup
Issued by NWS

Home | Current Version | Previous Version | Text Only | Print | Product List | Glossary On
Versions: 1 2 3 4 5 6 7 8 9 10 11 12 13 14 15 16 17 18 19 20 21 22 23 24 25 26 27 28 29 30 31 32 33 34 35 36 37 38 39 40 41 42 43 44 45 46 47 48 49 50
000
ASUS43 KTOP 230208
RWRKS

WEATHER ROUNDUP FOR KANSAS
NATIONAL WEATHER SERVICE GOODLAND KS
800 PM CST WED NOV 22 2017

NOTE:  "FAIR" INDICATES FEW OR NO CLOUDS BELOW 12,000 FEET WITH NO
SIGNIFICANT WEATHER AND/OR OBSTRUCTIONS TO VISIBILITY.

KSZ001>006-013>018-027>032-041>047-230300-
NORTHWEST KANSAS

CITY           SKY/WX    TMP DP  RH WIND       PRES   REMARKS
GOODLAND       CLEAR     45  34  65 W6        30.15R
HAYS           CLEAR     43  28  55 SW6       30.12R
HILL CITY      CLEAR     52  34  50 W6        30.10R
RUSSELL        CLEAR     47  23  38 S17       30.10S
$$

KSZ061>065-074>080-084>089-230300-
SOUTHWEST KANSAS

CITY           SKY/WX    TMP DP  RH WIND       PRES   REMARKS
DODGE CITY     CLOUDY    48  29  47 SW9       30.15S
ELKHART        CLOUDY    57  35  43 SW7       30.19S
GARDEN CITY    CLOUDY    46  32  58 SW8       30.14F
GREAT BEND     CLEAR     42  20  41 S9        30.14S
LIBERAL        CLEAR     41  28  60 W5        30.17S
PRATT          CLOUDY    41  17  39 S13       30.16S
$$

KSZ066>073-081>083-090>101-230300-
SOUTHEAST KANSAS

CITY           SKY/WX    TMP DP  RH WIND       PRES   REMARKS
CHANUTE        CLEAR     33  21  61 S6        30.24R
COFFEYVILLE    CLOUDY    35  22  58 CALM      30.25S
HUTCHINSON     CLOUDY    39  20  46 S9        30.17S
MEDICINE LODGE   N/A     40  20  44 S9        30.17F
NEWTON         CLEAR     37  19  48 S10       30.18F WCI  30
PARSONS        CLOUDY    29  23  78 CALM      30.25S
WICHITA INTL   PTCLDY    36  22  56 S9        30.19F
WICHITA JABRA  CLEAR     38  20  48 S8        30.19F
WICHITA MCCONL CLEAR     37  18  47 S8        30.19F
WINFIELD       CLOUDY    34  21  59 S8        30.23F
$$

KSZ007>012-019>026-033>040-048>060-102>105-230300-
NORTHEAST KANSAS

CITY           SKY/WX    TMP DP  RH WIND       PRES   REMARKS
CONCORDIA      CLOUDY    43  20  39 S16       30.10F
EMPORIA        CLEAR     32  17  54 S8        30.20S
LAWRENCE       CLEAR     33  20  58 SE3       30.22S
MANHATTAN      CLEAR     37  20  50 SW5       30.17F
MARYSVILLE     PTCLDY    39  21  48 S8        30.13F
OLATHE IND     CLOUDY    33  21  61 S8        30.22R
OLATHE EXE     CLEAR     33  20  58 S3        30.22R
SALINA         CLEAR     43  21  41 S12       30.16S
TOPEKA BILLARD CLEAR     36  19  50 S3        30.20S
TOPEKA FORBES  CLOUDY    36  18  48 S6        30.19R
$$



USA.gov is the U.S. government's official web portal to all federal, state and local government web resources and services.